Date,TemperatureHighF,TemperatureAvgF,TemperatureLowF,DewpointHighF,DewpointAvgF,DewpointLowF,HumidityHigh,HumidityAvg,HumidityLow,PressureMaxIn,PressureMinIn,WindSpeedMaxMPH,WindSpeedAvgMPH,GustSpeedMaxMPH,PrecipitationSumIn
2013-1-1,31.3,24.5,12.6,29.8,22.0,10.5,96,90,79,30.20,30.06,9,1,9,0.00
2013-1-2,19.7,11.6,1.8,10.8,5.8,-0.8,92,78,54,30.31,30.18,7,1,7,0.00
2013-1-3,29.6,21.9,12.5,24.8,15.2,4.4,85,75,58,30.33,30.24,15,5,17,0.00
2013-1-4,29.0,23.2,17.1,21.6,17.2,13.0,87,78,68,30.35,30.30,21,7,21,0.00
2013-1-5,36.6,28.0,19.6,31.0,24.0,17.4,94,85,67,30.36,30.13,18,5,18,0.00
2013-1-6,34.8,29.6,23.5,31.6,25.9,19.1,91,86,82,30.37,30.02,24,6,24,0.00
2013-1-7,34.0,25.4,14.1,26.0,21.4,12.2,95,85,71,30.47,30.24,18,3,19,0.00
2013-1-8,43.1,32.9,24.2,31.6,26.6,20.8,89,78,62,30.30,30.21,12,4,12,0.00
2013-1-9,42.4,39.6,35.9,34.7,32.9,30.5,81,77,74,30.21,30.17,17,6,17,0.00
2013-1-10,44.8,37.5,27.9,40.6,32.9,26.1,94,83,72,30.52,30.06,17,8,17,0.10
2013-1-11,57.7,51.0,44.7,53.1,47.7,40.5,97,89,76,30.06,29.82,21,8,21,0.63
2013-1-12,62.4,54.6,50.3,56.0,51.8,47.1,99,90,78,29.97,29.69,15,5,19,0.96
2013-1-13,56.2,38.2,22.4,55.9,37.1,18.9,99,96,86,30.20,29.63,19,4,20,1.20
2013-1-14,22.5,19.5,16.6,19.5,15.9,13.1,90,86,81,30.49,30.20,15,4,16,0.00
2013-1-15,29.2,24.3,18.7,23.3,19.6,16.4,91,82,71,30.44,30.13,15,5,15,0.00
2013-1-16,34.0,28.2,23.2,24.5,22.7,20.2,93,80,57,30.13,29.97,15,4,15,0.00
2013-1-17,37.2,30.5,21.3,30.3,24.1,14.7,88,77,62,30.43,30.10,16,3,16,0.00
2013-1-18,37.1,28.5,18.7,26.5,20.4,14.7,87,72,54,30.51,30.14,26,7,28,0.00
2013-1-19,52.7,43.8,35.7,37.3,31.1,25.0,71,61,49,30.15,29.85,32,11,32,0.00
2013-1-20,45.4,25.7,20.6,36.7,15.6,9.7,75,65,56,30.26,29.87,31,7,31,0.00
2013-1-21,20.6,14.0,7.1,12.7,6.1,-3.0,84,70,58,30.30,30.14,24,7,25,0.00
2013-1-22,14.1,8.1,2.5,1.7,-1.2,-3.3,78,66,52,30.45,30.29,19,5,19,0.00
2013-1-23,20.8,14.8,7.2,14.1,5.6,0.0,79,67,51,30.40,30.15,21,3,23,0.00
2013-1-24,20.8,15.6,9.9,12.6,8.1,3.6,86,72,50,30.64,30.19,19,5,19,0.00
2013-1-25,25.1,21.1,16.9,19.4,14.8,8.3,89,77,61,30.47,30.06,15,4,15,0.00
2013-1-26,27.5,20.2,13.2,18.3,14.6,9.4,91,79,66,30.48,30.12,11,2,11,0.00
2013-1-27,37.3,26.3,15.0,36.0,21.6,11.7,95,82,72,30.46,30.10,19,5,19,0.16
2013-1-28,50.7,46.4,37.3,49.7,45.4,35.7,99,96,93,30.12,29.96,23,8,24,0.06
2013-1-29,63.0,56.2,49.6,58.7,54.1,49.3,99,93,86,29.99,29.41,28,11,28,0.00
2013-1-30,64.8,46.7,27.1,60.1,44.2,23.5,98,91,82,29.56,29.21,42,9,42,0.84
2013-1-31,27.1,20.6,9.5,23.5,15.2,1.8,92,80,70,30.11,29.56,31,11,31,0.00
2013-2-1,14.8,9.1,3.7,7.5,2.5,-2.6,83,74,66,30.44,30.12,24,8,24,0.00
2013-2-2,26.0,21.1,13.5,23.1,17.5,7.6,93,86,76,30.33,30.02,19,6,20,0.00
2013-2-3,22.4,16.6,10.6,18.1,12.6,7.1,90,84,79,30.13,29.98,17,4,17,0.00
2013-2-4,34.8,26.2,17.3,30.8,21.6,13.5,92,82,70,30.12,29.83,21,4,21,0.00
2013-2-5,33.7,27.1,18.3,31.2,24.0,16.9,94,88,79,30.05,29.84,17,3,19,0.00
2013-2-6,35.7,30.7,27.9,28.7,24.2,21.3,89,77,63,30.28,30.05,12,2,15,0.00
2013-2-7,51.6,39.5,29.7,41.4,32.6,26.1,95,77,55,30.21,29.80,12,4,12,0.21
2013-2-8,42.4,32.6,26.1,41.1,28.9,22.0,96,86,76,30.37,29.81,21,6,21,0.06
2013-2-9,36.9,28.4,19.1,27.0,22.7,17.6,95,80,63,30.44,30.21,13,2,13,0.00
2013-2-10,49.8,41.9,31.4,47.4,34.5,23.6,95,75,62,30.21,29.70,27,8,27,0.02
2013-2-11,50.2,39.0,30.4,48.3,32.1,25.3,93,76,62,30.04,29.67,37,10,37,0.00
2013-2-12,42.7,32.1,27.5,31.6,26.6,23.4,92,80,60,30.14,29.96,15,3,15,0.00
2013-2-13,41.3,28.7,25.0,29.3,25.1,22.7,92,87,62,29.96,29.80,15,3,15,0.00
2013-2-14,35.0,33.8,32.4,30.3,29.9,29.0,91,86,79,29.86,29.85,17,7,17,0.00
2013-2-15,34.4,29.5,19.8,30.1,25.3,16.8,92,84,70,30.18,29.98,17,6,17,0.00
2013-2-16,23.2,20.0,16.5,19.6,12.2,7.2,91,72,57,30.17,30.10,18,5,18,0.00
2013-2-17,29.2,19.6,9.3,15.1,11.1,6.2,90,71,46,30.28,30.16,12,2,12,0.00
2013-2-18,54.9,40.2,24.2,42.5,29.0,12.9,92,64,53,30.20,29.60,35,10,35,0.02
2013-2-19,44.6,25.5,19.9,42.3,20.8,11.9,95,82,69,30.14,29.56,34,11,34,0.00
2013-2-20,22.6,17.1,10.5,14.3,10.7,5.0,84,75,66,30.37,30.14,20,5,20,0.00
2013-2-21,27.4,23.3,17.9,22.9,18.4,13.6,90,81,74,30.39,30.07,21,6,22,0.00
2013-2-22,35.1,32.1,25.9,34.0,30.0,22.9,97,92,84,30.11,29.88,22,6,25,0.09
2013-2-23,33.4,28.7,24.0,28.5,23.5,20.6,91,81,71,30.01,29.94,16,4,16,0.00
2013-2-24,37.1,28.7,21.6,26.3,22.6,18.5,89,78,61,30.17,29.99,12,3,15,0.00
2013-2-25,42.7,32.7,23.0,30.2,25.8,20.2,90,76,58,30.20,29.93,16,4,16,0.00
2013-2-26,40.8,35.3,32.0,40.1,31.5,26.3,98,86,75,29.93,29.41,24,9,25,1.01
2013-2-27,40.8,34.2,30.4,40.0,32.7,28.7,97,94,88,29.68,29.47,20,8,20,0.03
2013-2-28,37.2,33.1,30.4,33.1,31.2,28.9,97,92,83,29.99,29.66,15,5,16,0.03
2013-3-1,32.2,30.5,27.2,30.5,27.9,21.5,97,90,79,30.10,29.96,12,4,12,0.00
2013-3-2,29.7,26.8,24.5,23.7,20.5,18.8,86,77,67,30.12,30.08,15,5,15,0.00
2013-3-3,29.5,25.6,21.5,23.3,21.0,18.3,90,83,70,30.12,30.08,12,3,13,0.00
2013-3-4,37.0,28.1,15.6,28.9,22.1,13.9,94,79,59,30.18,30.02,12,3,12,0.01
2013-3-5,35.1,32.3,26.6,31.4,29.8,25.6,96,91,84,30.04,29.66,19,6,19,0.03
2013-3-6,33.2,29.8,25.6,28.7,27.0,24.4,96,89,81,30.28,29.75,17,5,17,0.03
2013-3-7,37.9,32.0,28.1,30.5,27.8,23.8,94,85,65,30.42,30.27,9,2,10,0.06
2013-3-8,38.9,30.8,22.0,27.4,24.1,19.8,92,77,58,30.51,30.41,10,2,10,0.00
2013-3-9,51.6,39.4,28.8,38.0,31.6,24.3,85,74,56,30.41,29.98,17,5,17,0.00
2013-3-10,63.7,56.0,50.5,43.3,39.4,36.3,64,54,42,29.98,29.73,27,9,28,0.01
2013-3-11,58.2,46.4,32.6,50.9,42.1,30.3,96,86,54,29.83,29.56,30,8,30,0.23
2013-3-12,41.1,33.5,30.3,30.9,28.3,24.7,94,82,60,30.03,29.83,21,7,23,0.00
2013-3-13,31.8,30.2,28.1,29.2,26.8,24.5,91,87,83,30.03,30.02,13,5,16,0.00
2013-3-14,40.6,30.4,20.6,28.0,20.9,17.3,89,70,42,30.37,30.19,14,7,14,0.00
2013-3-15,46.8,37.9,29.7,39.5,33.5,28.3,95,85,69,30.17,29.81,14,8,14,0.00
2013-3-16,43.7,37.4,32.1,40.5,35.3,29.5,97,92,85,30.07,29.61,16,8,16,0.00
2013-3-17,36.2,32.5,28.4,29.5,26.5,22.2,91,79,70,30.19,30.02,20,8,20,0.00
2013-3-18,41.2,35.1,30.8,40.3,33.4,26.7,97,93,82,30.02,29.57,21,6,21,0.05
2013-3-19,37.7,30.2,24.3,32.2,20.2,15.2,87,67,49,30.11,29.82,32,10,32,0.00
2013-3-20,31.4,26.0,21.1,21.3,15.9,9.7,77,66,51,30.10,30.01,23,7,23,0.00
2013-3-21,31.7,23.0,11.9,18.1,14.3,7.7,90,70,51,30.06,29.99,17,3,17,0.00
2013-3-22,40.7,29.3,16.9,21.8,18.5,14.4,93,66,43,30.09,30.01,14,2,14,0.00
2013-3-23,44.7,34.9,27.1,26.9,23.8,18.6,85,65,42,30.10,29.93,14,3,14,0.00
2013-3-24,33.6,30.2,27.2,29.9,26.9,24.9,96,87,75,29.95,29.49,29,8,29,0.02
2013-3-25,33.4,30.2,26.9,31.9,28.7,25.9,96,94,87,30.00,29.51,19,6,19,0.13
2013-3-26,38.2,33.1,30.0,30.9,28.9,27.1,94,85,68,30.25,30.00,14,4,16,0.00
2013-3-27,41.1,33.4,24.9,29.8,26.1,22.5,92,75,55,30.33,30.25,14,3,15,0.00
2013-3-28,45.1,35.4,26.3,30.7,26.8,23.5,90,72,53,30.38,30.31,11,2,11,0.00
2013-3-29,52.2,39.2,25.9,36.1,30.1,23.9,94,72,48,30.34,30.23,10,2,11,0.00
2013-3-30,55.6,43.4,27.1,37.2,32.4,25.6,95,68,44,30.25,29.93,16,3,16,0.00
2013-3-31,58.4,48.8,42.5,44.3,40.9,36.3,94,75,52,29.93,29.73,22,5,22,0.10
2013-4-1,45.7,37.6,28.6,37.9,24.9,17.6,80,61,41,30.16,29.81,20,5,20,0.00
2013-4-2,42.6,32.4,23.5,22.4,19.2,15.4,87,61,34,30.30,30.16,18,3,18,0.00
2013-4-3,45.6,34.0,21.2,23.4,18.8,12.1,84,55,36,30.46,30.30,18,2,18,0.00
2013-4-4,57.9,41.6,30.2,25.8,21.4,18.7,67,47,24,30.37,30.00,12,2,12,0.00
2013-4-5,54.9,44.4,33.5,34.4,27.3,20.5,70,52,34,30.17,29.98,16,3,17,0.00
2013-4-6,65.4,50.9,36.5,40.7,32.0,24.8,66,49,35,30.17,29.80,25,8,27,0.00
2013-4-7,69.8,62.3,52.9,47.4,43.1,39.1,64,50,34,29.94,29.75,32,8,32,0.00
2013-4-8,71.6,62.0,52.8,58.8,53.1,40.6,91,73,60,29.95,29.79,28,7,28,0.00
2013-4-9,80.3,67.6,54.0,61.5,56.6,50.8,91,70,45,29.98,29.83,32,6,33,0.00
2013-4-10,79.1,68.0,52.6,67.6,61.5,51.8,98,81,64,29.88,29.72,30,8,30,1.10
2013-4-11,67.0,60.5,51.8,61.6,58.4,50.3,98,93,82,29.75,29.50,20,6,21,1.04
2013-4-12,51.5,41.3,36.5,50.4,35.7,30.4,97,80,65,29.91,29.53,21,8,22,0.06
2013-4-13,45.4,40.9,37.5,36.3,34.2,31.5,88,77,62,30.02,29.91,24,7,24,0.00
2013-4-14,69.0,53.3,38.8,50.8,42.1,34.4,87,68,45,30.04,29.82,17,4,17,0.00
2013-4-15,68.0,61.0,52.9,57.4,52.1,45.6,83,73,58,29.94,29.83,19,7,20,0.00
2013-4-16,63.1,53.5,49.3,55.4,50.3,46.9,97,89,76,30.19,29.85,18,4,18,1.20
2013-4-17,72.3,57.3,46.6,67.3,54.1,44.1,95,89,77,30.21,29.88,20,5,21,0.24
2013-4-18,75.2,64.6,56.1,66.3,61.2,55.0,98,89,69,29.90,29.55,37,8,37,0.85
2013-4-19,59.8,40.4,35.7,59.0,36.1,29.6,98,85,69,29.95,29.49,28,9,31,0.64
2013-4-20,44.1,37.5,31.6,33.7,28.8,25.0,90,72,50,30.44,29.95,20,5,20,0.00
2013-4-21,52.2,41.0,30.0,33.2,27.6,22.4,77,60,42,30.56,30.39,14,4,17,0.00
2013-4-22,67.0,51.7,34.5,41.7,35.3,29.9,88,57,33,30.39,30.11,14,3,14,0.00
2013-4-23,66.4,58.3,51.8,56.8,48.9,39.8,95,72,56,30.11,29.76,24,5,24,0.27
2013-4-24,58.2,42.6,36.3,55.1,39.2,32.6,97,88,69,30.21,29.74,20,5,23,1.11
2013-4-25,51.3,43.2,35.8,40.7,33.1,25.9,86,69,41,30.39,30.20,27,6,30,0.00
2013-4-26,60.6,48.0,32.3,40.7,35.7,29.7,92,65,43,30.45,30.33,12,3,12,0.00
2013-4-27,65.8,54.8,44.0,51.0,41.5,32.9,87,62,41,30.35,30.01,22,4,22,0.02
2013-4-28,59.7,56.4,53.0,57.6,54.8,50.3,99,94,84,30.01,29.81,10,3,10,0.53
2013-4-29,66.7,59.6,54.6,57.0,54.9,52.3,99,85,67,29.98,29.86,15,4,15,0.01
2013-4-30,78.4,65.5,52.9,62.8,55.9,49.7,90,73,56,30.02,29.91,17,5,17,0.00
2013-5-1,82.3,70.8,54.4,60.9,56.3,50.6,89,62,41,30.12,30.02,14,3,15,0.00
2013-5-2,74.5,68.0,59.8,58.9,56.0,53.8,84,66,53,30.16,30.04,16,4,17,0.00
2013-5-3,74.8,67.7,60.7,61.2,56.2,42.3,82,68,42,30.05,29.89,20,6,22,0.00
2013-5-4,69.7,63.0,57.4,52.9,46.4,42.3,85,56,39,29.98,29.91,18,6,20,0.00
2013-5-5,62.4,57.0,52.7,53.1,50.8,46.7,97,81,59,29.97,29.91,17,3,17,0.01
2013-5-6,67.7,60.4,53.3,57.1,53.4,49.0,90,78,65,29.96,29.90,17,4,17,0.00
2013-5-7,72.6,63.9,53.0,57.8,55.6,51.6,97,76,57,29.98,29.91,14,3,15,0.00
2013-5-8,78.2,65.5,52.3,61.2,56.3,51.8,98,75,43,29.99,29.92,14,2,14,0.00
2013-5-9,78.5,64.3,53.5,61.0,56.6,51.9,98,79,41,29.98,29.87,19,3,26,0.70
2013-5-10,68.0,61.4,48.3,62.8,58.4,45.4,98,90,74,29.88,29.77,16,5,17,0.08
2013-5-11,59.4,48.4,43.2,53.6,44.8,36.3,97,88,74,30.02,29.84,21,4,25,0.00
2013-5-12,54.0,44.6,36.1,37.9,33.7,28.4,95,68,39,30.13,30.02,20,3,20,0.00
2013-5-13,61.9,49.4,36.0,39.8,33.3,25.8,91,58,28,30.19,30.10,16,2,17,0.00
2013-5-14,83.7,66.0,48.8,62.7,49.5,35.3,66,56,45,30.11,29.76,25,8,26,0.00
2013-5-15,85.7,77.2,70.0,66.0,61.0,56.5,82,58,43,29.81,29.74,27,8,27,0.00
2013-5-16,80.1,72.1,63.9,66.4,63.1,56.8,96,75,53,29.93,29.78,13,2,14,0.02
2013-5-17,80.7,67.4,59.6,67.2,63.3,58.9,99,88,57,30.02,29.93,16,2,18,0.50
2013-5-18,77.8,68.6,62.2,67.0,63.9,61.3,98,86,66,30.05,29.94,11,2,12,0.00
2013-5-19,83.6,72.8,61.1,70.2,65.9,60.4,99,80,57,29.95,29.82,12,2,12,0.00
2013-5-20,84.6,76.7,70.7,71.8,69.1,66.4,96,78,59,29.90,29.78,21,6,21,0.00
2013-5-21,83.8,73.7,62.7,68.5,64.8,61.4,96,75,53,29.85,29.71,29,7,29,0.03
2013-5-22,74.9,67.6,60.6,65.2,63.2,59.6,97,86,67,29.75,29.66,22,6,22,0.43
2013-5-23,64.8,58.3,49.2,60.8,55.3,46.7,98,90,79,30.13,29.74,20,4,21,0.06
2013-5-24,63.9,52.3,43.7,46.7,43.4,37.7,100,75,40,30.35,30.13,15,3,15,0.00
2013-5-25,63.9,53.7,42.3,49.2,43.2,35.8,93,70,40,30.39,30.22,9,1,9,0.00
2013-5-26,69.3,59.6,44.3,52.6,46.7,40.5,92,64,47,30.30,30.16,11,2,12,0.01
2013-5-27,77.2,62.7,53.3,66.3,57.9,50.8,98,85,67,30.19,29.88,23,4,25,1.06
2013-5-28,80.4,72.5,63.9,70.2,66.1,62.1,98,81,65,29.93,29.85,24,7,27,0.00
2013-5-29,84.5,76.7,69.6,67.4,63.9,60.9,76,65,51,29.98,29.89,21,7,21,0.00
2013-5-30,86.6,76.6,69.4,73.7,67.3,62.7,86,73,54,30.03,29.91,24,6,28,0.14
2013-5-31,76.1,71.9,66.6,70.8,67.8,65.3,98,87,79,29.97,29.83,20,7,20,0.27
2013-6-1,75.3,70.0,63.8,70.0,65.9,62.8,98,87,76,29.86,29.72,22,6,22,0.81
2013-6-2,69.5,64.4,56.3,64.3,59.7,51.8,91,85,72,29.97,29.75,17,5,19,0.03
2013-6-3,67.2,55.9,44.4,52.2,47.7,41.9,95,76,44,30.08,29.96,13,2,13,0.00
2013-6-4,75.3,61.1,44.5,53.8,48.2,43.4,98,67,36,30.16,30.05,13,2,13,0.00
2013-6-5,81.0,68.3,54.2,58.9,52.4,47.8,80,59,38,30.08,29.84,14,2,16,0.00
2013-6-6,74.7,64.7,58.2,63.2,56.3,50.3,85,74,62,29.87,29.76,9,2,9,0.00
2013-6-7,73.8,64.9,56.6,59.8,57.0,54.9,95,77,58,29.87,29.80,13,2,13,0.00
2013-6-8,78.4,67.0,55.6,62.0,57.2,52.9,94,72,50,30.00,29.86,12,2,12,0.00
2013-6-9,82.2,71.5,63.1,67.5,62.5,57.8,93,75,48,30.00,29.82,15,3,15,0.01
2013-6-10,75.5,69.4,63.6,67.0,64.5,62.1,99,85,66,29.82,29.74,17,5,17,0.21
2013-6-11,84.1,71.2,61.4,69.8,65.4,61.1,99,84,50,29.93,29.82,14,2,14,0.05
2013-6-12,89.7,79.5,68.5,76.5,72.1,67.0,97,79,60,29.87,29.61,26,4,26,0.00
2013-6-13,79.4,68.4,60.3,69.2,60.0,54.3,99,76,53,29.94,29.57,23,6,26,1.54
2013-6-14,78.8,66.6,55.5,64.9,59.3,54.3,97,79,53,30.05,29.92,9,1,9,0.00
2013-6-15,80.8,69.5,57.8,68.0,61.9,56.8,98,78,55,30.08,29.91,14,2,14,0.00
2013-6-16,78.6,71.8,65.4,70.2,66.6,63.2,95,84,73,29.94,29.87,21,4,22,0.06
2013-6-17,86.6,75.0,66.6,72.9,67.8,62.8,99,81,48,29.93,29.83,9,1,9,0.00
2013-6-18,80.3,72.8,63.6,69.3,64.7,59.6,96,77,59,29.98,29.83,14,3,14,0.00
2013-6-19,81.3,69.7,58.4,63.2,58.5,55.6,94,69,46,30.09,29.98,9,2,10,0.00
2013-6-20,86.1,73.2,59.6,66.2,60.8,56.0,91,67,40,30.16,30.09,9,2,9,0.00
2013-6-21,87.3,76.7,65.0,67.0,63.0,59.0,82,65,43,30.16,30.00,13,3,14,0.00
2013-6-22,88.5,75.6,69.2,74.3,69.0,64.5,97,81,56,30.09,29.99,14,3,18,0.64
2013-6-23,86.5,73.6,65.0,73.5,68.6,64.4,99,86,58,30.08,29.98,27,4,27,0.01
2013-6-24,85.5,76.1,68.6,72.3,69.3,64.1,97,81,59,30.08,29.95,18,3,18,0.01
2013-6-25,88.5,78.8,69.6,75.9,71.5,66.2,96,80,58,29.97,29.81,19,5,19,0.03
2013-6-26,83.5,74.1,67.0,75.6,69.6,65.8,97,86,72,29.88,29.69,18,4,18,0.26
2013-6-27,84.1,75.1,68.0,73.8,70.4,66.8,99,86,67,29.74,29.64,16,3,16,0.00
2013-6-28,81.5,72.6,63.8,69.6,65.9,61.2,98,80,55,29.65,29.55,17,3,18,0.25
2013-6-29,73.0,65.2,61.1,66.5,63.6,60.8,99,95,78,29.65,29.54,9,1,11,0.38
2013-6-30,72.9,66.6,61.8,67.5,63.7,61.2,99,91,78,29.86,29.65,15,3,18,0.18
2013-7-1,69.2,65.7,62.3,64.9,62.1,59.1,94,88,82,29.94,29.83,15,5,16,0.01
2013-7-2,77.2,66.1,60.0,70.2,63.9,59.1,98,93,78,29.99,29.92,12,2,12,1.18
2013-7-3,80.0,70.5,61.4,69.0,65.6,61.1,99,86,65,30.07,29.98,16,3,16,0.01
2013-7-4,78.6,69.2,62.0,70.1,66.4,61.7,99,91,72,30.11,30.03,7,0,7,0.03
2013-7-5,81.0,71.9,64.7,70.9,67.8,64.3,99,88,69,30.11,30.02,11,1,11,0.00
2013-7-6,74.4,69.8,66.1,69.9,68.1,64.5,99,94,83,30.08,29.99,11,1,11,0.02
2013-7-7,82.0,72.1,64.6,72.6,68.2,64.0,99,88,65,30.07,29.98,11,3,11,0.00
2013-7-8,84.7,77.7,69.7,76.0,71.5,67.6,94,82,71,30.06,29.96,14,4,14,0.00
2013-7-9,87.8,80.2,73.9,78.5,74.1,71.1,92,82,70,30.00,29.90,15,4,16,0.00
2013-7-10,86.0,78.0,68.5,79.2,73.2,64.0,96,85,70,29.92,29.77,35,4,35,0.06
2013-7-11,76.8,69.3,58.9,64.0,60.9,56.8,96,76,57,30.02,29.92,15,3,15,0.00
2013-7-12,77.6,67.6,55.0,64.9,60.2,54.4,99,79,56,30.10,30.01,15,2,15,0.00
2013-7-13,82.7,71.0,58.4,70.2,64.2,57.3,98,81,60,30.12,30.06,11,2,13,0.00
2013-7-14,89.4,77.0,64.8,79.2,70.3,63.1,96,81,60,30.17,30.11,10,1,10,0.00
2013-7-15,89.3,80.1,71.9,75.3,72.8,70.3,97,80,61,30.25,30.17,12,2,12,0.00
2013-7-16,91.8,80.2,68.3,79.3,73.5,67.9,99,82,56,30.30,30.22,5,0,6,0.00
2013-7-17,90.8,80.4,70.1,77.2,73.7,69.8,100,82,58,30.30,30.15,6,1,6,0.00
2013-7-18,91.8,80.5,69.3,80.2,74.2,69.0,99,83,58,30.17,29.97,7,1,8,0.00
2013-7-19,90.0,81.6,72.5,78.3,74.3,71.1,97,80,59,29.99,29.80,16,4,16,0.00
2013-7-20,79.7,74.5,68.0,74.1,71.2,67.4,98,89,82,29.88,29.77,13,3,13,0.15
2013-7-21,84.7,74.4,64.8,74.8,70.2,64.2,99,88,67,29.94,29.84,6,1,6,0.00
2013-7-22,73.5,70.9,67.7,70.9,69.3,67.1,98,95,87,29.87,29.80,8,1,11,0.17
2013-7-23,84.4,74.6,62.8,73.8,68.8,58.5,99,83,64,29.84,29.71,17,9,17,0.00
2013-7-24,71.6,62.4,53.5,59.6,55.9,51.5,95,80,62,30.00,29.84,14,7,14,0.00
2013-7-25,75.5,63.2,49.3,60.6,55.4,48.8,98,78,51,30.09,30.01,10,3,10,0.00
2013-7-26,78.4,67.2,53.1,63.4,58.8,52.3,98,77,55,30.08,29.92,13,5,13,0.00
2013-7-27,74.9,68.2,57.3,66.3,60.7,52.2,98,78,56,29.92,29.80,20,11,20,0.01
2013-7-28,70.6,62.1,49.8,54.6,52.9,47.6,93,73,53,30.02,29.90,23,4,23,0.00
2013-7-29,76.5,64.5,51.8,60.8,56.1,50.4,97,76,53,30.16,30.02,13,2,13,0.00
2013-7-30,77.5,66.8,54.7,65.9,60.8,53.6,97,82,59,30.19,30.08,7,1,7,0.00
2013-7-31,73.8,67.8,64.4,71.1,66.1,62.6,98,95,86,30.08,29.91,7,1,8,0.32
2013-8-1,79.3,69.8,59.4,68.8,62.6,57.3,99,80,52,29.97,29.90,16,2,17,0.32
2013-8-2,82.2,69.0,54.1,68.3,61.3,53.4,98,78,58,29.96,29.89,19,4,20,0.00
2013-8-3,80.0,69.2,61.4,69.7,65.6,55.6,99,89,62,30.04,29.89,10,1,11,0.84
2013-8-4,74.9,66.9,57.8,63.0,59.1,55.6,96,77,56,30.15,30.04,9,1,9,0.84
2013-8-5,70.2,60.1,57.7,63.6,58.9,56.6,99,96,74,30.10,29.93,6,0,6,0.21
2013-8-6,79.5,70.8,61.2,72.0,67.3,60.3,97,89,76,29.94,29.87,7,1,7,0.22
2013-8-7,72.5,70.2,67.8,71.6,69.6,66.9,99,98,96,29.89,29.84,8,1,8,0.00
2013-8-8,75.9,70.8,67.7,73.1,69.6,67.1,99,96,90,29.92,29.86,6,1,8,1.16
2013-8-9,80.8,71.4,67.7,69.4,67.7,66.3,98,89,67,30.00,29.88,6,1,6,0.02
2013-8-10,81.9,79.4,78.0,70.0,68.6,66.6,75,70,61,30.07,30.04,7,2,8,0.02
2013-8-11,81.9,73.2,64.6,71.3,67.4,63.6,98,83,62,30.08,30.01,8,1,8,0.00
2013-8-12,78.4,67.3,61.3,70.6,64.9,60.7,99,92,76,30.06,29.84,4,0,5,0.00
2013-8-13,72.5,66.1,55.0,67.2,59.4,50.3,98,81,53,30.07,29.83,14,2,14,0.00
2013-8-14,69.2,57.2,44.0,57.5,50.3,43.2,98,80,55,30.19,30.07,13,1,14,0.00
2013-8-15,73.6,59.2,44.4,57.9,51.8,43.9,99,79,51,30.18,30.09,6,0,6,0.00
2013-8-16,73.3,62.3,52.1,63.5,56.1,51.6,98,82,56,30.16,30.11,9,1,10,0.00
2013-8-17,79.0,65.6,54.4,62.5,58.2,52.6,97,79,52,30.19,30.11,9,1,11,0.00
2013-8-18,82.3,63.5,55.5,68.4,59.8,54.6,98,89,49,30.17,30.07,7,1,7,0.00
2013-8-19,81.3,64.1,55.7,66.5,59.8,55.1,99,88,55,30.12,30.08,6,0,6,0.00
2013-8-20,86.3,76.0,58.2,70.6,66.0,57.6,99,73,51,30.14,30.05,7,1,8,0.00
2013-8-21,86.8,74.8,64.4,74.3,68.0,62.8,97,81,54,30.11,30.00,10,1,10,0.00
2013-8-22,80.5,71.4,65.0,74.6,68.6,64.2,98,91,76,30.06,29.97,10,1,11,0.14
2013-8-23,81.6,69.1,61.0,71.1,65.2,59.1,99,89,60,30.13,30.03,8,1,8,0.01
2013-8-24,83.8,69.1,54.1,67.3,59.6,52.9,98,75,39,30.25,30.13,9,1,9,0.01
2013-8-25,87.9,64.8,58.2,64.5,60.1,57.1,98,87,45,30.26,30.18,5,0,5,0.00
2013-8-26,87.3,77.3,61.8,75.4,69.7,58.9,96,79,57,30.19,30.03,12,2,12,0.00
2013-8-27,90.5,79.1,70.2,77.7,72.5,68.8,98,81,54,30.05,29.90,12,3,15,0.00
2013-8-28,88.8,80.1,73.6,77.2,73.3,69.5,95,80,66,29.94,29.86,18,3,20,0.00
2013-8-29,86.0,75.1,67.6,74.8,70.3,66.8,99,87,62,30.02,29.94,10,1,10,0.00
2013-8-30,90.6,76.0,62.7,74.5,69.0,62.1,99,81,53,29.96,29.77,13,2,14,0.00
2013-8-31,87.2,74.2,67.1,73.7,69.7,66.2,97,86,58,29.82,29.72,11,2,11,0.47
2013-9-1,83.1,73.0,65.9,74.6,69.6,65.3,98,90,73,29.78,29.72,9,2,10,0.00
2013-9-2,81.1,70.7,64.1,70.8,68.0,60.1,99,92,55,29.89,29.71,14,2,14,0.01
2013-9-3,73.7,63.1,48.6,59.6,55.8,47.8,98,79,59,30.04,29.90,12,2,14,0.00
2013-9-4,80.5,64.4,49.8,65.6,57.4,49.3,99,81,49,30.14,30.03,11,1,11,0.00
2013-9-5,81.9,67.6,55.1,68.1,61.1,54.4,99,82,58,30.18,30.10,10,1,10,0.00
2013-9-6,81.0,64.8,50.8,65.0,57.9,48.1,92,79,58,30.21,30.07,1,0,2,0.00
2013-9-7,85.9,78.2,68.1,69.5,67.0,65.2,95,70,52,29.99,29.90,14,2,14,0.01
2013-9-8,86.2,74.0,67.7,71.1,67.7,66.1,96,81,60,29.95,29.90,9,2,9,0.01
2013-9-9,91.3,80.8,65.6,74.0,70.8,64.4,97,73,53,29.97,29.87,17,4,17,0.01
2013-9-10,85.2,78.0,74.1,75.7,72.7,69.7,94,84,71,30.05,29.94,11,3,12,0.00
2013-9-11,89.6,77.1,70.5,73.4,68.2,64.6,96,76,46,30.08,29.95,11,2,11,0.00
2013-9-12,81.0,72.3,61.9,70.4,64.5,53.1,98,78,49,29.96,29.82,14,2,17,0.92
2013-9-13,64.8,57.0,47.3,55.2,48.2,43.8,94,74,50,30.10,29.94,14,2,16,0.00
2013-9-14,72.3,55.2,38.8,51.5,43.2,37.6,97,69,32,30.20,30.08,9,1,10,0.00
2013-9-15,75.7,59.6,46.8,57.0,49.4,43.1,95,72,39,30.13,29.99,15,2,15,0.07
2013-9-16,62.4,58.0,49.5,56.3,54.3,48.1,98,88,72,30.28,30.08,12,2,13,0.06
2013-9-17,72.8,59.5,46.8,55.9,51.2,45.4,96,76,50,30.33,30.15,13,2,13,0.00
2013-9-18,81.1,68.1,57.3,66.2,58.7,52.4,91,74,50,30.15,29.99,10,1,10,0.00
2013-9-19,80.6,70.9,64.7,71.6,67.9,63.9,99,91,73,30.03,29.88,13,3,14,1.73
2013-9-20,78.9,70.9,65.7,71.2,68.7,64.8,98,93,76,29.92,29.76,12,3,13,0.40
2013-9-21,69.4,60.7,48.1,65.2,54.0,45.8,98,80,52,29.89,29.73,15,2,17,0.19
2013-9-22,67.1,54.0,42.9,52.2,46.6,42.3,99,79,45,30.02,29.89,12,1,12,0.00
2013-9-23,69.7,55.5,42.8,50.9,46.9,41.6,96,75,47,30.12,30.02,11,2,11,0.00
2013-9-24,73.2,57.9,43.3,53.7,48.5,42.0,96,73,48,30.08,29.91,12,2,16,0.00
2013-9-25,75.5,60.9,49.5,56.2,50.5,47.3,94,71,40,29.93,29.86,14,2,15,0.00
2013-9-26,78.7,60.6,46.1,58.5,52.3,45.3,98,77,45,30.07,29.93,11,1,12,0.00
2013-9-27,79.7,62.2,47.6,56.8,50.4,45.8,95,70,34,30.16,30.07,8,1,8,0.00
2013-9-28,81.8,65.2,48.1,58.8,54.4,46.6,97,71,43,30.15,30.00,15,2,15,0.00
2013-9-29,64.1,61.5,57.8,62.9,59.2,56.2,98,93,81,30.01,29.95,10,2,11,0.68
2013-9-30,74.3,62.7,55.7,63.5,59.1,55.4,99,89,60,30.00,29.91,14,2,17,0.01
2013-10-1,74.9,65.1,59.4,64.9,61.6,58.8,99,89,68,30.04,29.97,14,3,15,0.01
2013-10-2,79.9,68.4,62.5,69.8,65.3,61.3,99,90,69,30.08,29.99,8,1,8,0.00
2013-10-3,79.4,71.0,64.4,69.1,66.2,63.4,98,86,66,30.02,29.92,16,3,17,0.00
2013-10-4,82.1,72.5,66.4,70.9,67.8,65.2,97,86,66,30.01,29.95,15,3,15,0.01
2013-10-5,71.3,69.4,66.7,68.9,67.7,66.1,98,95,92,29.99,29.96,11,2,11,0.56
2013-10-6,65.9,56.1,47.5,64.6,53.2,41.3,98,90,72,29.86,29.70,16,5,20,1.40
2013-10-7,61.3,49.8,43.7,49.0,45.1,41.1,97,85,61,30.15,29.79,18,3,18,0.04
2013-10-8,70.7,55.5,43.1,53.0,46.6,41.9,98,76,43,30.26,30.15,11,1,11,0.01
2013-10-9,75.3,56.0,41.9,52.3,46.7,40.6,97,75,40,30.25,30.14,12,1,12,0.00
2013-10-10,74.2,56.9,41.1,54.9,46.6,40.3,98,73,38,30.19,30.07,8,0,8,0.00
2013-10-11,79.8,59.2,41.8,57.4,49.0,40.8,98,74,38,30.11,30.00,9,1,10,0.00
2013-10-12,78.2,63.5,47.6,58.7,54.4,46.8,98,76,44,30.10,30.01,13,1,13,0.00
2013-10-13,70.0,61.3,48.7,61.7,49.0,41.0,91,67,35,30.33,30.10,11,2,12,0.00
2013-10-14,68.2,52.7,37.4,51.1,43.8,36.1,97,75,43,30.36,30.19,10,1,11,0.00
2013-10-15,66.9,58.0,47.5,62.3,55.4,45.9,97,91,79,30.20,29.89,16,3,16,0.04
2013-10-16,63.3,55.0,40.8,62.1,48.6,39.3,96,80,58,29.96,29.85,18,4,18,0.00
2013-10-17,51.0,44.5,37.1,48.5,42.5,36.3,98,93,79,29.96,29.88,16,2,16,0.12
2013-10-18,64.5,51.1,40.6,49.4,43.9,38.8,94,79,46,29.99,29.90,22,5,22,0.00
2013-10-19,51.7,43.9,38.8,41.7,38.8,35.4,97,83,57,29.97,29.86,20,3,20,0.27
2013-10-20,62.9,50.0,40.1,44.9,40.2,35.7,86,70,49,29.98,29.91,23,6,24,0.00
2013-10-21,59.6,50.1,39.0,47.8,42.9,29.7,91,77,64,29.98,29.87,17,5,18,0.00
2013-10-22,50.4,38.3,29.5,36.8,30.6,26.3,95,76,44,30.04,29.87,13,2,13,0.06
2013-10-23,45.7,38.6,32.5,38.3,33.3,28.0,97,82,54,30.05,29.84,17,4,17,0.27
2013-10-24,41.8,36.9,31.1,33.8,31.1,25.9,88,80,62,30.29,30.04,14,4,14,0.00
2013-10-25,47.2,36.2,26.9,31.6,26.6,24.3,90,70,43,30.45,30.25,17,3,17,0.00
2013-10-26,52.0,41.7,34.0,40.2,31.7,26.3,88,68,59,30.25,29.92,26,6,26,0.00
2013-10-27,55.1,40.3,28.5,37.4,32.6,27.4,97,77,46,30.12,30.05,12,2,12,0.00
2013-10-28,60.7,42.5,27.4,41.9,32.7,26.1,98,73,38,30.33,30.09,8,1,8,0.00
2013-10-29,58.2,46.0,33.8,44.7,39.3,32.8,97,79,55,30.37,30.20,7,1,7,0.00
2013-10-30,63.8,55.9,48.6,62.7,54.4,44.6,98,95,82,30.20,29.94,15,2,15,0.10
2013-10-31,63.8,60.7,55.5,62.6,59.5,54.1,98,96,91,29.94,29.23,26,8,34,0.86
2013-11-1,55.4,50.0,44.9,54.3,45.5,41.3,96,85,73,29.75,29.35,22,6,22,0.00
2013-11-2,52.6,45.6,42.5,43.5,41.1,38.1,94,85,62,30.11,29.74,20,4,20,0.00
2013-11-3,52.2,42.2,32.2,41.5,37.6,31.2,97,84,59,30.35,30.11,8,1,9,0.00
2013-11-4,54.3,46.8,38.4,42.9,38.8,34.7,89,74,56,30.37,30.27,16,3,16,0.00
2013-11-5,56.7,52.5,48.0,47.6,44.4,41.5,89,74,64,30.37,30.14,15,3,15,0.00
2013-11-6,59.0,51.9,41.3,54.2,45.0,39.4,95,78,63,30.14,29.89,22,7,23,0.08
2013-11-7,46.9,40.3,32.4,39.5,32.6,27.1,93,76,47,30.28,30.08,19,4,19,0.00
2013-11-8,49.6,38.1,28.4,34.0,30.5,26.9,94,76,50,30.38,30.18,12,2,12,0.00
2013-11-9,60.0,49.6,40.9,42.5,36.3,28.1,72,60,51,30.19,29.97,18,8,25,0.00
2013-11-10,47.1,40.1,31.1,38.9,32.5,27.5,90,75,58,30.34,30.08,16,4,17,0.00
2013-11-11,49.7,40.3,27.7,40.2,33.4,26.2,95,77,56,30.36,30.08,20,6,20,0.04
2013-11-12,33.2,27.9,22.4,26.5,22.7,18.2,94,81,66,30.66,30.36,14,4,14,0.00
2013-11-13,38.2,28.3,18.6,21.0,18.5,16.3,92,69,42,30.65,30.36,19,5,19,0.00
2013-11-14,53.2,39.9,29.2,24.4,21.9,18.5,71,51,27,30.36,30.10,22,9,22,0.00
2013-11-15,49.6,43.9,38.9,39.5,28.1,21.4,88,55,42,30.11,30.04,18,7,18,0.00
2013-11-16,47.7,44.9,42.2,46.2,42.6,39.3,95,91,88,30.07,30.04,16,6,16,0.00
2013-11-17,64.9,57.7,46.4,61.6,52.4,41.6,97,83,67,29.80,29.35,41,13,41,0.83
2013-11-18,47.3,41.9,31.5,41.7,34.5,27.4,86,75,56,30.21,29.75,27,8,27,0.00
2013-11-19,40.2,32.8,25.8,30.1,27.4,23.5,93,81,66,30.37,30.21,14,2,14,0.00
2013-11-20,46.7,36.6,25.6,35.1,29.5,22.6,90,76,60,30.36,30.20,17,4,17,0.00
2013-11-21,51.0,47.4,42.3,48.0,41.5,29.8,97,81,61,30.28,30.17,13,3,13,0.32
2013-11-22,49.6,42.9,31.0,48.8,41.0,29.2,98,93,84,30.42,30.15,17,4,17,0.18
2013-11-23,31.1,26.1,19.7,29.3,21.2,13.8,94,82,65,30.63,30.39,20,5,21,0.00
2013-11-24,25.7,19.5,13.4,15.7,12.9,9.4,90,76,51,30.73,30.54,12,3,14,0.00
2013-11-25,32.1,26.6,18.1,21.1,16.4,12.7,80,66,53,30.55,30.19,19,6,19,0.00
2013-11-26,33.6,31.6,28.9,28.4,25.4,21.0,88,78,65,30.21,29.98,17,3,17,0.00
2013-11-27,28.9,23.7,18.5,24.9,18.8,13.6,89,81,68,30.32,30.00,17,5,17,0.02
2013-11-28,34.1,25.4,18.5,18.8,16.0,13.1,82,68,48,30.48,30.27,20,4,22,0.00
2013-11-29,36.7,26.4,14.3,24.6,19.7,12.4,94,76,58,30.67,30.48,9,1,9,0.00
2013-11-30,48.7,36.8,26.5,31.8,26.8,21.4,82,68,50,30.53,30.15,17,5,17,0.00
2013-12-1,49.6,40.8,34.8,38.4,31.7,25.0,89,70,58,30.15,29.97,12,3,12,0.00
2013-12-2,43.9,37.0,31.2,36.8,33.6,29.1,94,87,74,29.98,29.81,10,2,11,0.06
2013-12-3,50.3,42.3,34.4,47.6,40.7,33.4,97,94,89,29.86,29.77,16,4,16,0.00
2013-12-4,60.8,52.6,44.7,56.9,51.0,43.4,98,95,86,29.83,29.64,18,5,19,0.01
2013-12-5,59.9,38.2,23.2,56.3,34.5,21.5,94,86,78,30.20,29.69,19,6,22,0.00
2013-12-6,27.4,24.7,21.9,23.2,21.5,17.8,94,88,81,30.46,30.19,10,3,11,0.00
2013-12-7,24.0,17.0,8.7,17.9,12.5,6.6,92,82,67,30.67,30.46,9,2,9,0.00
2013-12-8,28.2,22.4,14.9,27.2,19.1,11.5,96,87,78,30.59,30.02,18,5,18,0.00
2013-12-9,28.9,24.3,18.6,27.8,20.4,12.9,96,85,76,30.26,29.99,19,6,19,0.00
2013-12-10,25.8,18.7,9.8,15.7,11.1,3.0,84,72,55,30.36,30.15,29,6,29,0.00
2013-12-11,25.7,17.5,7.2,20.7,13.2,3.1,89,83,75,30.57,30.34,15,3,15,0.00
2013-12-12,20.6,10.9,-1.8,5.5,1.2,-4.8,88,66,47,30.59,30.36,18,5,19,0.00
2013-12-13,31.7,22.5,0.0,29.0,15.9,2.9,95,64,57,30.36,30.16,16,4,17,0.00
2013-12-14,33.2,30.1,23.7,32.2,28.9,21.5,97,95,91,30.17,29.75,14,3,15,0.04
2013-12-15,26.3,20.3,14.7,24.3,16.3,9.4,94,84,77,30.15,29.93,24,7,24,0.00
2013-12-16,26.5,20.0,14.1,25.5,17.7,11.8,96,91,83,30.17,30.03,9,3,9,0.00
2013-12-17,27.2,23.8,19.2,25.3,21.6,17.4,96,91,83,30.16,30.03,18,6,18,0.00
2013-12-18,34.4,25.3,14.7,21.9,17.4,11.3,88,73,58,30.28,30.02,25,7,25,0.00
2013-12-19,46.7,41.8,34.3,41.8,33.8,21.8,83,73,59,30.03,29.89,21,8,21,0.05
2013-12-20,57.5,51.1,45.8,56.7,48.7,41.5,98,91,83,29.89,29.74,19,7,19,0.38
2013-12-21,54.3,41.2,36.8,52.9,40.3,36.0,97,96,91,29.83,29.50,20,4,20,2.60
2013-12-22,48.4,36.8,31.3,48.1,34.9,28.9,99,93,91,30.08,29.33,27,8,27,0.18
2013-12-23,31.2,25.5,14.4,28.9,21.5,8.7,91,85,77,30.44,30.08,19,6,19,0.00
2013-12-24,18.8,11.8,4.4,12.2,7.0,-0.4,87,81,72,30.61,30.44,17,5,17,0.00
2013-12-25,27.9,22.6,16.0,24.2,17.3,12.0,87,80,72,30.51,30.19,19,6,19,0.00
2013-12-26,35.3,29.8,22.1,27.3,22.9,15.4,92,76,59,30.37,30.16,23,6,23,0.00
2013-12-27,44.7,36.4,29.2,33.6,28.9,23.4,83,74,64,30.40,30.24,21,6,23,0.00
2013-12-28,50.2,40.8,34.9,37.2,33.1,30.6,85,74,59,30.24,29.97,16,7,17,0.00
2013-12-29,43.4,35.8,26.0,35.3,30.2,23.2,95,81,68,30.08,29.79,22,6,22,0.00
2013-12-30,25.9,19.7,16.8,23.5,15.4,11.8,92,83,74,30.31,30.08,14,3,14,0.00
2013-12-31,28.0,21.5,17.0,20.6,15.7,12.2,88,78,67,30.41,30.20,21,5,21,0.00
2014-1-1,33.1,25.0,19.9,28.3,21.8,16.8,91,87,82,30.32,30.07,13,4,13,0.00
2014-1-2,21.7,14.8,2.6,19.7,11.9,-1.7,93,88,75,30.38,29.95,24,7,24,0.00